Regional Weather Roundup
Issued by NWS

Home | Current Version | Previous Version | Text Only | Print | Product List | Glossary On
Versions: 1 2 3 4 5 6 7 8 9 10 11 12 13 14 15 16 17 18 19 20 21 22 23 24 25 26 27 28 29 30 31 32 33 34 35 36 37 38 39 40 41 42 43 44 45 46 47 48 49 50
000
ASUS44 KJAN 281310
RWRMS

MISSISSIPPI HOURLY WEATHER ROUNDUP
NATIONAL WEATHER SERVICE JACKSON MS
700 AM CST FRI NOV 28 2014

NOTE: "FAIR: INDICATES FEW OR NO CLOUDS BELOW 12,000 FEET WITH NO
SIGNIFICANT WEATHER AND/OR OBSTRUCTIONS TO VISIBILITY.

MSZ001>002-007>008-010>013-018>021-025>028-034>036-281400-
NORTHWEST MISSISSIPPI

CITY           SKY/WX    TMP DP  RH WIND       PRES   REMARKS
CLARKSDALE     FAIR      32  30  93 SE7       30.42F WCI  26
CLEVELAND      FAIR      33  31  93 MISG      30.42S
GREENWOOD      CLEAR     32  27  81 CALM      30.43F
GREENVILLE     CLEAR     33  29  85 SE8       30.42S WCI  26
GRENADA        FAIR      30  27  86 E3        30.45S
OLIVE BRANCH   CLEAR     28  28 100 SE6       30.42R WCI  22
OXFORD         FAIR      28  23  80 SE7       30.44R WCI  21
TUNICA         SUNNY     32  28  86 SE9       30.42F WCI  24
$$

MSZ003>006-009-014>017-022>024-029>033-037>039-281400-
NORTHEAST MISSISSIPPI

CITY           SKY/WX    TMP DP  RH WIND       PRES   REMARKS
COLUMBUS AFB   CLEAR     25  23  91 SE1       30.46R
CORINTH          N/A     25  21  86 SE5       30.43S WCI  19
GOLDN TRIANGLE CLEAR     27  25  93 CALM      30.44S
STARKVILLE       N/A     25  23  93 CALM      30.46R
TUPELO         CLEAR     27  23  85 CALM      30.44S
$$

MSZ040-058-281400-
CENTRAL MISSISSIPPI

CITY           SKY/WX    TMP DP  RH WIND       PRES   REMARKS
JACKSON INTL   PTCLDY    29  26  89 CALM      30.43S
JACKSON HAWKNS CLEAR     32  28  85 SE3       30.44R
MERIDIAN KEY   CLEAR     29  26  89 N3        30.45R
MERIDIAN NAS   PTCLDY    28  25  88 CALM      30.46R
RAYMOND        FAIR      28  25  86 MISG      30.43F FOG
VICKSBURG      CLEAR     31  28  89 SE3       30.43S
$$

MSZ059>079-281400-
SOUTH MISSISSIPPI

CITY           SKY/WX    TMP DP  RH WIND       PRES   REMARKS
BROOKHAVEN     FAIR      30  30 100 CALM      30.44R FOG
HATTIESBURG    CLEAR     30  28  92 CALM      30.46R
MCCOMB         CLEAR     32  27  81 CALM      30.43R
NATCHEZ        CLEAR     36  28  75 SE3       30.43R
PINE BELT      CLEAR     30  25  80 CALM      30.44R
$$

MSZ080>082-281400-
COASTAL MISSISSIPPI

CITY           SKY/WX    TMP DP  RH WIND       PRES   REMARKS
BAY ST LOUIS   CLEAR     30  28  93 CALM      30.45
BILOXI         CLEAR     34  31  86 NE3       30.44R
PASCAGOULA     CLEAR     30  28  92 CALM      30.44R
GULFPORT       CLEAR     33  31  92 CALM      30.44S
$$


USA.gov is the U.S. government's official web portal to all federal, state and local government web resources and services.